Regional Weather Roundup
Issued by NWS

Home | Current Version | Previous Version | Text Only | Print | Product List | Glossary Off
Versions: 1 2 3 4 5 6 7 8 9 10 11 12 13 14 15 16 17 18 19 20 21 22 23 24 25 26 27 28 29 30 31 32 33 34 35 36 37 38 39 40 41 42 43 44 45 46 47 48 49 50

923
ASUS43 KLMK 051410
RWRKY
KENTUCKY REGIONAL WEATHER ROUNDUP
NATIONAL WEATHER SERVICE LOUISVILLE KY
900 AM EST MON DEC 05 2016

NOTE "FAIR" INDICATES FEW OR NO CLOUDS BELOW 12,000 FEET
WITH NO SIGNIFICANT WEATHER AND/OR OBSTRUCTIONS TO VISIBILITY.

KYZ001>023-026-027-061>063-070>075-051500-
WESTERN AND SOUTH CENTRAL KENTUCKY

CITY           SKY/WX    TMP DP  RH WIND       PRES   REMARKS
PADUCAH        CLOUDY    37  32  82 NE6       30.05S WCI  32
HENDERSON      CLOUDY    37  30  75 NE9       30.08S WCI  31
OWENSBORO      CLOUDY    39  33  79 NE9       30.09R WCI  33
HOPKINSVILLE   CLOUDY    39  36  88 E8        30.06S WCI  33
BOWLING GREEN  CLOUDY    40  36  86 E7        30.09R
GLASGOW        CLOUDY    38  38 100 NE6       30.09R WCI  34
$$

KYZ024-025-028>034-038-045-046-053-051500-
NORTH CENTRAL KENTUCKY

CITY           SKY/WX    TMP DP  RH WIND       PRES   REMARKS
LOUISVILLE/SDF CLOUDY    40  32  73 VRB3      30.11R
LOUISVILLE/LOU CLOUDY    40  32  73 CALM      30.11R
FORT KNOX      CLOUDY    38  33  81 E6        30.08R WCI  33
$$

KYZ035>037-039>044-047>052-055>060-089>105-051500-
NORTHEAST KENTUCKY

CITY           SKY/WX    TMP DP  RH WIND       PRES   REMARKS
LEXINGTON      CLOUDY    39  35  86 NE5       30.09R
COVINGTON      CLOUDY    37  31  78 N5        30.09R WCI  33
FRANKFORT      CLOUDY    39  32  76 NE6       30.09R WCI  35
$$

KYZ054-064>069-076>088-106>120-051500-
SOUTHEAST KENTUCKY

CITY           SKY/WX    TMP DP  RH WIND       PRES   REMARKS
JACKSON        CLOUDY    42  37  82 CALM      30.07R
LONDON         CLOUDY    44  40  85 CALM      30.07R
SOMERSET       CLOUDY    41  39  93 NE6       30.08S
MIDDLESBORO    CLOUDY    46  43  90 CALM      30.07S
MONTICELLO     CLOUDY    42  40  92 N12       30.09R
$$





USA.gov is the U.S. government's official web portal to all federal, state and local government web resources and services.